Regional Weather Roundup
Issued by NWS Northern Indiana

Home | Current Version | Previous Version | Graphics & Text | Print | Product List | Glossary On
Versions: 1 2 3 4 5 6 7 8 9 10 11 12 13 14 15 16 17 18 19 20 21 22 23 24 25 26 27 28 29 30 31 32 33 34 35 36 37 38 39 40 41 42 43 44 45 46 47 48 49 50
000
ASUS43 KIWX 172300
RWRIWX

KIWX WEATHER ROUNDUP
NATIONAL WEATHER SERVICE NORTHERN INDIANA
600 PM EST SAT FEB 17 2018

NOTE: "FAIR" INDICATES FEW OR NO CLOUDS BELOW 12,000 FEET WITH NO
SIGNIFICANT WEATHER AND/OR OBSTRUCTIONS TO VISIBILITY.

* THESE STATIONS ARE NOT UNDER NWS QUALITY CONTROL. THEY ALSO MAY NOT
  REPORT WEATHER SUCH AS PRECIPITATION OR FOG.

INZ001>027-180000-
NORTHERN INDIANA

CITY           SKY/WX    TMP DP  RH WIND       PRES   REMARKS
GARY*          LGT SNOW  34  32  93 SW7       29.95S VSB 3/4 WCI  28
KNOX*          CLOUDY    32  32 100 S5        29.96S VSB 1/2 WCI  27
SOUTH BEND     LGT SNOW  32  28  85 SW7       29.96R VSB 3/4 WCI  26
ELKHART*       LGT SNOW  34  27  75 SW7       29.96  WCI  28
GOSHEN         CLOUDY    34  27  75 SW8       29.96R WCI  27
MONTICELLO*    LGT SNOW  32  31  95 S3        29.97S VSB 3/4
WARSAW*        LGT SNOW  32  28  86 S3        29.96S
AUBURN*        MOCLDY    32  28  86 CALM      29.97F
FORT WAYNE     LGT SNOW  34  30  85 S7        29.99F VSB 1   WCI  28
PERU/GRISSOM   LGT SNOW  32  32 100 S6        29.97S VSB 3/4 WCI  27

$$
INZ028>050-180000-
CENTRAL INDIANA

CITY           SKY/WX    TMP DP  RH WIND       PRES   REMARKS
LAFAYETTE      SNOW      32  32 100 SW5       29.98S VSB 1/2 WCI  27
KOKOMO*        LGT SNOW  33  31  92 S7        29.99S VSB 1   WCI  27
MUNCIE*        LGT SNOW  35  32  88 SW7       29.99S FOG     WCI  29
INDIANAPOLIS   LGT SNOW  34  33  96 S10       30.01R FOG     WCI  26

$$
MIZ043>046-050>051-056>058-064>065-071>073-077>080-180000-
SOUTHWEST LOWER MICHIGAN

CITY           SKY/WX    TMP DP  RH WIND       PRES   REMARKS
BATTLE CREEK   CLOUDY    32  24  72 S3        29.95S
BENTON HARBOR  LGT SNOW  34  26  72 S8        29.95S WCI  27
COLDWATER*     CLOUDY    32  25  74 SW3       29.95F
HILLSDALE*     CLOUDY    32  25  74 S5        29.94F WCI  27
HOLLAND        CLOUDY    32  24  72 SW6       29.96R WCI  26
GRAND RAPIDS   LGT SNOW  31  23  72 SW10      29.94S WCI  22
KALAMAZOO      CLOUDY    34  23  64 SW6       29.96S WCI  29
STURGIS*       CLOUDY    33  28  81 SW5       29.95R WCI  28
THREE RIVERS*  CLOUDY    34  25  71 SW3       29.96R

$$
OHZ001>008-015>018-024>025-180000-
NORTHWEST OHIO

CITY           SKY/WX    TMP DP  RH WIND       PRES   REMARKS
DEFIANCE       CLOUDY    33  28  81 S3        30.00S
FINDLAY        LGT SNOW  33  29  85 S5        29.99R FOG     WCI  29
TOLEDO EXPRESS CLOUDY    33  28  81 SW5       30.00S WCI  29
TOLEDO METCALF CLOUDY    33  27  78 S6        30.01R WCI  28
LIMA           LGT SNOW  32  32 100 S3        29.99S FOG

$$
AND FOR LAKE MICHIGAN COASTAL AND OPEN LAKE BUOY OBSERVATIONS

STATION/POSITION TEMP    WIND        PRES    VSBY  WAVE
                 AIR SEA DIR/SP/G                  HT/PER
                 (F)     (DEG/KT/KT) (MB)    (MI)  (FT/S)
CALUMET HARBOR    32     180/  6/  8 1013.5
MICHIGAN CITY     31     170/  7/  8   N/A
BURNS HARBOR      32     190/  8/ 10 1014.6S
SAINT JOSEPH      35     170/  2/  7 1015.2

$$
&&



USA.gov is the U.S. government's official web portal to all federal, state and local government web resources and services.